Regional Weather Roundup
Issued by NWS

Home | Current Version | Previous Version | Graphics & Text | Print | Product List | Glossary On
Versions: 1 2 3 4 5 6 7 8 9 10 11 12 13 14 15 16 17 18 19 20 21 22 23 24 25 26 27 28 29 30 31 32 33 34 35 36 37 38 39 40 41 42 43 44 45 46 47 48 49 50
000
ASUS43 KLOT 220510
RWRIL

ILLINOIS REGIONAL WEATHER ROUNDUP
NATIONAL WEATHER SERVICE CHICAGO/ROMEOVILLE IL
1200 AM CDT FRI AUG 22 2014

NOTE: "FAIR" INDICATES FEW OR NO CLOUDS BELOW 12,000 FEET WITH NO
SIGNIFICANT WEATHER AND/OR OBSTRUCTIONS TO VISIBILITY.

* THESE STATIONS ARE NOT UNDER NWS QUALITY CONTROL. THEY ALSO MAY NOT
  REPORT WEATHER SUCH AS PRECIPITATION OR FOG.

ILZ001-002-007-009-015-016-024-220600-
NORTHWEST ILLINOIS

CITY           SKY/WX    TMP DP  RH WIND       PRES   REMARKS
MOLINE         MOCLDY    77  74  90 E3        29.90R
STERLING*      CLOUDY    75  72  88 E5        29.91F
SAVANNA*       CLEAR     74  72  91 E5        29.91S
$$

ILZ003-004-008-010-011-017-018-220600-
NORTH CENTRAL ILLINOIS

CITY           SKY/WX    TMP DP  RH WIND       PRES   REMARKS
ROCKFORD       MOCLDY    75  72  90 E5        29.94F
FREEPORT*      PTCLDY    73  72  96 E5        29.95F FOG
ROCHELLE*      CLOUDY    74  72  95 CALM      29.93F FOG
DE KALB*       CLOUDY    72  71  98 SE3       29.95F FOG
PERU*          CLOUDY    78  76  91 SW9       29.91F THUNDER HX  82
$$

ILZ005-006-012>014-019>023-220600-
NORTHEAST ILLINOIS

CITY           SKY/WX    TMP DP  RH WIND       PRES   REMARKS
CHICAGO-OHARE  CLOUDY    75  70  84 SE5       29.94F
CHICAGO-MIDWAY CLOUDY    77  73  87 CALM      29.95S
AURORA         CLOUDY    75  72  90 E6        29.94F FOG
LANSING*       CLOUDY    73  71  93 S3        29.96S
JOLIET*        CLOUDY    73  71  91 CALM      29.95F
WAUKEGAN       FOG       71  70  96 E3        29.95S VSB 1/4
DUPAGE AIRPORT MOCLDY    75  72  90 SE6       29.92F
KANKAKEE*      DRIZZLE   73  72  95 E3        29.97R
WHEELING       CLOUDY    75  72  90 CALM      29.95F FOG
MORRIS*        CLOUDY    74  74 100 CALM      29.93F
ROMEOVILLE*    CLOUDY    73  72  98 SE3       29.95F
NORTHERLY ISL    N/A     74  70  87 NW8         N/A
$$

LMZ740>746-220600-
SOUTHERN LAKE MICHIGAN

STATION/POSITION SKY/WX   TEMP    WIND        PRES    VSBY  WAVE
                          AIR SEA DIR/SP/G                  HT/PER
                          (F)     (DEG/KT/KT) (MB)    (MI)  (FT/S)
SOUTHERN BUOY              69 68  110/  4/  4 1014.6R         0
WAUKEGAN HARBOR            71        CALM       N/A
HARRISON CRIB              75     180/  9/ 10   N/A
BURNHAM HARBOR             74     170/  2/ 11   N/A
CALUMET HARBOR             74     160/  3/  4 1012.9F
BURNS HARBOR               74     180/  5/  8   N/A
MICHIGAN CITY              73     140/ 10/ 14   N/A
MICHIGAN CITY 6N           73 71  180/  6/  8   N/A           1
ST. JOSEPH                 72 71  160/  4/  6   N/A           1
$$

ILZ025>027-034>036-040-047-049-050-058-095>099-220600-
WEST-CENTRAL ILLINOIS

CITY           SKY/WX    TMP DP  RH WIND       PRES   REMARKS
QUINCY         MOCLDY    80  75  84 S8        29.92S HX  85
GALESBURG*     CLOUDY    79  76  93 S5        29.92R HX  82
MACOMB*        MOCLDY    77  75  95 S3        29.95R
JACKSONVILLE*  CLEAR     82  77  85 S6        29.95S HX  89
PITTSFIELD*    PTCLDY    80  74  82 S5        29.94F HX  85
$$

ILZ028>032-037-038-041>044-048-051>054-059>061-220600-
CENTRAL ILLINOIS

CITY           SKY/WX    TMP DP  RH WIND       PRES   REMARKS
PONTIAC        CLOUDY    81  79  94 S5        29.94S HX  89
DECATUR        CLEAR     80  75  84 S14       29.96S HX  85
PEORIA         MOCLDY    82  76  81 S9        29.93R HX  89
LACON*         MOCLDY    78  76  92 CALM      29.93R HX  80
LINCOLN*       CLEAR     80  76  89 S5        29.91F HX  85
SPRINGFIELD    CLEAR     82  76  81 S9        29.95R HX  89
TAYLORVILLE    CLEAR     77  73  88 S12       29.97S
$$

ILZ033-039-045-046-055>057-062-063-220600-
EAST-CENTRAL ILLINOIS

CITY           SKY/WX    TMP DP  RH WIND       PRES   REMARKS
CHAMPAIGN      PTCLDY    78  75  90 S10       29.97R HX  81
DANVILLE*      CLOUDY    78  75  91 SW7       29.96R
RANTOUL*       MOCLDY    81  74  78 SW8       29.98R HX  86
MATTOON        CLEAR     78  74  87 S9        29.98S HX  81
PARIS*         PTCLDY    78  75  91 S8        29.99S HX  81
$$

ILZ079-100>102-220600-
SOUTHWEST ILLINOIS

CITY           SKY/WX    TMP DP  RH WIND       PRES   REMARKS
ALTON          CLEAR     81  79  96 S7        29.97S HX  90
BELLEVILLE     CLEAR     79  77  95 VRB2      29.97S HX  83
CAHOKIA*       CLEAR     78  75  90 SE6       29.96S HX  81
SPARTA*        CLEAR     80  75  84 S8        30.00R HX  85
$$

ILZ064>066-069>071-074>076-080>082-084>086-088>090-092>094-220600-
SOUTH-CENTRAL ILLINOIS

CITY           SKY/WX    TMP DP  RH WIND       PRES   REMARKS
CARBONDALE     CLEAR     80  72  76 S10       30.01S HX  84
CAIRO*         CLEAR     82  74  77 S6        30.03S HX  88
MARION         CLEAR     81  75  83 S8        30.02S HX  86
MT. VERNON     CLEAR     79  72  78 S5        30.02R HX  82
CENTRALIA*     CLEAR     77  73  86 S5        30.00S
SALEM*         CLEAR     81  76  85 S7        30.00S HX  88
METROPOLIS*    CLEAR     80  71  74 S5        30.03S HX  83
$$

ILZ067-068-072-073-078-083-087-091-220600-
SOUTHEAST ILLINOIS

CITY           SKY/WX    TMP DP  RH WIND       PRES   REMARKS
LAWRENCEVILLE  CLEAR     75  73  93 S5        30.01S
FLORA*         CLEAR     77  74  91 SW7       30.00F
FAIRFIELD*     CLEAR     79  75  89 S3        30.01S HX  82
HARRISBURG*    CLEAR     77  75  92 CALM      30.04R
ROBINSON*      CLEAR     78  76  92 SW5       30.01S HX  81
CARMI*         CLEAR     75  75 100 SE5       30.01F
$$

ABBREVIATIONS USED IN REMARKS
   TC - TEMPERATURE IN CELSIUS
  WCI - WIND CHILL INDEX
   HX - HEAT INDEX
  VSB - VISIBILITY
$$




USA.gov is the U.S. government's official web portal to all federal, state and local government web resources and services.